EW5401 Weather Reports


Display with metric or nautical units.
time (UTC)temp
F
wind
direction
speed
MPH
gust
MPH
rain 1hr
in
rain 24hr
in
rain mn
in
humidity
%
barometer
mb
20260508114514 45 56 0.0 4.0 0.00 0.00 0.00 64 1011.1
20260508113011 42 47 0.0 2.0 0.00 0.00 0.00 78 1011.2
20260508111509 41 47 0.0 0.0 0.00 0.00 0.00 83 1011.1
20260508110007 39 47 0.0 0.0 0.00 0.00 0.00 84 1011.0
20260508104505 38 47 0.0 3.0 0.00 0.00 0.00 86 1010.9
20260508103002 37 218 0.0 0.0 0.00 0.00 0.00 87 1010.5
20260508101602 37 218 0.0 0.0 0.00 0.00 0.00 86 1010.2
20260508100058 37 218 0.0 0.0 0.00 0.00 0.00 85 1010.0
20260508094557 37 218 0.0 0.0 0.00 0.00 0.00 85 1010.0
20260508093057 38 218 0.0 0.0 0.00 0.00 0.00 84 1010.0
20260508091607 39 218 0.0 0.0 0.00 0.00 0.00 82 1009.8
20260508090055 40 218 0.0 0.0 0.00 0.00 0.00 82 1009.8
20260508084602 41 218 0.0 0.0 0.00 0.00 0.00 81 1009.7
20260508083104 41 218 0.0 0.0 0.00 0.00 0.00 80 1009.6
20260508081554 41 208 0.0 2.0 0.00 0.00 0.00 80 1009.6
20260508080105 41 208 0.0 0.0 0.00 0.00 0.00 80 1009.6
20260508074554 41 208 0.0 0.0 0.00 0.00 0.00 79 1009.4
20260508073056 41 208 0.0 2.0 0.00 0.00 0.00 80 1009.4
20260508071548 42 219 0.0 2.0 0.00 0.00 0.00 81 1009.4
20260508070048 41 219 1.0 4.0 0.00 0.00 0.00 79 1009.5
20260508064547 39 113 0.0 0.0 0.00 0.00 0.00 85 1009.5
20260508063042 39 71 0.0 0.0 0.00 0.00 0.00 85 1009.4
20260508061537 38 69 0.0 0.0 0.00 0.00 0.00 85 1009.1
20260508060034 38 69 0.0 0.0 0.00 0.00 0.00 85 1008.6
20260508054543 38 69 0.0 0.0 0.00 0.00 0.00 87 1008.8
20260508053032 37 69 0.0 0.0 0.00 0.00 0.00 87 1008.8
20260508051534 36 69 0.0 0.0 0.00 0.00 0.00 86 1008.8
20260508050040 36 69 0.0 0.0 0.00 0.00 0.00 85 1008.8
20260508044527 36 69 0.0 0.0 0.00 0.00 0.00 84 1008.8
20260508043024 37 69 0.0 0.0 0.00 0.00 0.00 84 1008.9
20260508041522 37 69 0.0 0.0 0.00 0.00 0.00 83 1009.0
20260508040036 38 69 0.0 0.0 0.00 0.00 0.00 82 1008.9
20260508034519 38 69 0.0 1.0 0.00 0.00 0.00 82 1009.0
20260508033017 39 69 0.0 0.0 0.00 0.00 0.00 81 1009.1
20260508031516 39 69 0.0 0.0 0.00 0.00 0.00 80 1009.2
20260508030010 40 69 0.0 0.0 0.00 0.00 0.00 78 1009.2
20260508024519 41 69 0.0 1.0 0.00 0.00 0.00 76 1009.3
20260508023009 42 69 0.0 0.0 0.00 0.00 0.00 73 1009.3
20260508021601 43 69 0.0 0.0 0.00 0.00 0.00 70 1009.3
20260508020101 44 69 0.0 0.0 0.00 0.00 0.00 65 1009.1
20260508014600 46 69 0.0 0.0 0.00 0.03 0.00 58 1009.0
20260508013059 47 69 0.0 1.0 0.00 0.03 0.00 56 1008.8
20260508011600 47 74 0.0 1.0 0.00 0.03 0.00 54 1008.8
20260508010057 48 74 0.0 1.0 0.00 0.03 0.00 53 1008.6
20260508004600 49 74 1.0 4.0 0.00 0.05 0.00 48 1008.3
20260508003057 49 23 0.0 2.0 0.00 0.05 0.00 49 1008.1
20260508001556 50 331 0.0 4.0 0.00 0.05 0.00 50 1008.1
20260508000059 51 79 1.0 4.0 0.00 0.05 0.00 47 1008.1
20260507234601 52 63 0.0 4.0 0.00 0.06 0.00 48 1007.9
20260507233115 53 63 0.0 4.0 0.00 0.06 0.00 45 1007.8
20260507231553 53 298 0.0 10.0 0.00 0.06 0.00 45 1007.6
20260507230054 54 300 2.0 6.0 0.00 0.06 0.00 44 1007.6
20260507224553 55 10 2.0 6.0 0.00 0.06 0.00 43 1007.5
20260507223104 55 290 2.0 9.0 0.00 0.06 0.00 44 1007.5
20260507221554 56 311 4.0 11.0 0.00 0.06 0.00 43 1007.4
20260507220051 56 265 2.0 13.0 0.00 0.06 0.00 44 1007.6
20260507214551 57 106 2.0 8.0 0.00 0.06 0.00 43 1007.4
20260507213050 55 296 2.0 10.0 0.00 0.06 0.00 48 1007.5
20260507211557 55 263 2.0 12.0 0.00 0.06 0.00 47 1007.4
20260507210106 56 20 5.0 13.0 0.00 0.06 0.00 47 1007.2
20260507204549 57 320 4.0 10.0 0.00 0.06 0.00 45 1007.2
20260507203046 57 219 4.0 9.0 0.00 0.06 0.00 45 1007.2
20260507201545 56 254 1.0 10.0 0.00 0.06 0.00 48 1007.3
20260507200053 57 316 5.0 15.0 0.00 0.06 0.00 43 1007.3
20260507194550 58 28 3.0 11.0 0.00 0.13 0.00 44 1007.5
20260507193042 58 255 3.0 8.0 0.00 0.13 0.00 45 1007.6
20260507191544 56 39 5.0 12.0 0.00 0.13 0.00 45 1007.9
20260507190047 57 327 3.0 10.0 0.00 0.13 0.00 45 1007.9
20260507184544 57 279 5.0 12.0 0.00 0.18 0.00 49 1008.1
20260507183046 55 238 3.0 10.0 0.00 0.18 0.00 47 1008.0
20260507181535 55 326 3.0 11.0 0.00 0.18 0.00 45 1008.3
20260507180036 55 325 3.0 8.0 0.00 0.18 0.00 47 1008.5
20260507174536 57 317 4.0 10.0 0.00 0.22 0.00 45 1008.8
20260507173043 56 272 3.0 11.0 0.00 0.22 0.00 50 1008.7
20260507171529 55 259 3.0 11.0 0.00 0.22 0.00 50 1008.8
20260507170028 53 331 4.0 11.0 0.00 0.22 0.00 51 1008.9
20260507164535 54 313 3.0 9.0 0.00 0.31 0.00 54 1008.9
20260507163027 54 321 3.0 12.0 0.00 0.31 0.00 54 1009.0
20260507161525 55 76 4.0 15.0 0.00 0.31 0.00 45 1009.4
20260507160027 54 306 4.0 17.0 0.00 0.31 0.00 48 1009.7
20260507154522 54 205 3.0 13.0 0.00 0.32 0.00 54 1009.8
20260507153024 53 319 4.0 13.0 0.00 0.32 0.00 51 1010.0
20260507151519 53 296 5.0 12.0 0.00 0.32 0.00 50 1010.0
20260507150017 51 284 6.0 13.0 0.00 0.32 0.00 48 1009.9
20260507144517 51 316 8.0 15.0 0.00 0.32 0.00 49 1010.1
20260507143021 52 296 5.0 12.0 0.00 0.32 0.00 54 1009.9
20260507141518 50 306 6.0 15.0 0.00 0.32 0.00 47 1010.1
20260507140017 50 32 4.0 14.0 0.00 0.32 0.00 49 1010.2
20260507134509 49 280 5.0 13.0 0.00 0.32 0.00 53 1010.0
20260507133007 49 319 5.0 14.0 0.00 0.32 0.00 54 1010.1
20260507131515 48 320 3.0 11.0 0.00 0.32 0.00 62 1010.2
20260507130003 48 32 3.0 12.0 0.00 0.32 0.00 59 1010.0
20260507124508 47 294 6.0 15.0 0.00 0.32 0.00 62 1009.9
20260507123101 47 313 8.0 19.0 0.00 0.32 0.00 60 1010.0
20260507121558 47 330 5.0 14.0 0.00 0.32 0.00 68 1009.9
20260507120056 46 308 2.0 10.0 0.00 0.32 0.00 73 1009.9